Regional Weather Roundup
Issued by NWS Sioux Falls, SD

Home | Current Version | Previous Version | Text Only | Print | Product List | Glossary On
Versions: 1 2 3 4 5 6 7 8 9 10 11 12 13 14 15 16 17 18 19 20 21 22 23 24 25 26 27 28 29 30 31 32 33 34 35 36 37 38 39 40 41 42 43 44 45 46 47 48 49 50
000
ASUS43 KFSD 071410
RWRFSD

WEATHER ROUNDUP FOR SE SOUTH DAKOTA/SW MINNESOTA/NW IOWA
NATIONAL WEATHER SERVICE SIOUX FALLS SD
900 AM CDT TUE JUL 07 2015

NOTE: "FAIR" INDICATES FEW OR NO CLOUDS BELOW 12,000 FEET WITH NO
SIGNIFICANT WEATHER AND OR OBSTRUCTIONS TO VISIBILITY.


SDZ038>040-050-052>070-071500-
SOUTHEAST SOUTH DAKOTA

CITY           SKY/WX    TMP DP  RH WIND       PRES   REMARKS
BROOKINGS      SUNNY     55  46  71 NE6       30.23R
CHAMBERLAIN    SUNNY     60  54  81 SE10      30.20R
HURON          SUNNY     59  51  75 E8        30.21R
MADISON        FAIR      55  50  82 NE9       30.22R
MITCHELL       MOSUNNY   60  53  77 E10       30.22R
SIOUX FALLS    MOSUNNY   58  48  69 NE14      30.21R
WINNER         FAIR      63  56  78 SE10      30.20R HAZE
YANKTON        SUNNY     57  50  77 E5        30.20S
$$

MNZ071-072-080-081-089-090-097-098-071500-
SOUTHWEST MINNESOTA

CITY           SKY/WX    TMP DP  RH WIND       PRES   REMARKS
FAIRMONT       SUNNY     57  45  62 N14       30.17R
JACKSON        SUNNY     57  46  67 NE12      30.19R
LUVERNE        SUNNY     57  50  77 N6        30.21R
MARSHALL       SUNNY     57  46  67 NE6         N/A
MONTEVIDEO     SUNNY     63  52  67 NE8         N/A
PIPESTONE      SUNNY     55  48  76 NE9       30.21R
REDWOOD FALLS  SUNNY     60  50  69 VRB7      30.20R
TRACY          SUNNY     58  51  78 N9        30.21S
WINDOM         SUNNY     57  46  67 N10       30.20R
WORTHINGTON    SUNNY     55  48  76 NE10      30.20R
$$

IAZ001>003-012>014-020>022-031-032-NEZ013-014-SDZ071-071500-
NORTHWEST IOWA

CITY           SKY/WX    TMP DP  RH WIND       PRES   REMARKS
CHEROKEE       SUNNY     58  50  76 NE12      30.19R
DENISON        SUNNY     59  48  67 N9G15     30.15R
ESTHERVILLE    SUNNY     57  48  72 N15       30.18R
LE MARS        SUNNY     59  50  72 NE9       30.21R
ORANGE CITY    SUNNY     55  48  76 NE7       30.20R
SHELDON        SUNNY     57  57 100 NE9G15    30.19R
SIOUX CITY     SUNNY     62  48  60 NE9       30.20R
SPENCER        SUNNY     60  49  66 N10       30.18R
STORM LAKE     SUNNY     59  50  72 N14       30.18R
$$

ABBREVIATIONS USED IN REMARKS
   TC - TEMPERATURE IN CELSIUS
  WCI - WIND CHILL INDEX
   HX - HEAT INDEX
  VSB - VISIBILITY




USA.gov is the U.S. government's official web portal to all federal, state and local government web resources and services.